Location: ?ern� Novina
(50.6762°N, 14.8696°E)
Time: 17:56:44
(UTC+00:00)

USA 308 - Pass Details

Date: 03 March 2021
Orbit: 568 x 576 km, 54.0° (Epoch: 13 April)

Event Time Altitude Azimuth Distance (km) Brightness Sun altitude
Rises 18:27:52 0° 278° (W) 2,777 8.2 -17.0°
Reaches altitude 10° 18:30:10 10° 283° (WNW) 1,878 6.9 -17.3°
Maximum altitude 18:34:21 53° 1° (N) 702 3.3 -18.0°
Enters shadow 18:35:58 33° 61° (ENE) 972 3.7 -18.2°
